Location: A O Calhoun Middle School
(33.2198°N, 97.1397°W)
Time: 10:46:54
(UTC+00:00)

Cosmos 1538 Rocket - Pass Details

Date: 08 December 2021
Orbit: 753 x 791 km, 74.0° (Epoch: 29 January)

Event Time Altitude Azimuth Distance (km) Brightness Sun altitude
Rises 12:33:47 0° 343° (NNW) 3,229 6.9 -9.6°
Reaches altitude 10° 12:36:10 10° 344° (NNW) 2,295 6.1 -9.2°
Maximum altitude 12:41:23 89° 71° (ENE) 760 4.0 -8.2°
Drops below altitude 10° 12:46:31 10° 164° (SSE) 2,267 7.0 -7.2°
Sets 12:48:52 0° 164° (SSE) 3,187 7.8 -6.7°
